ROMMA est une association bénévole à but non lucratif. Votre soutien est indispensable : ADHERER à ROMMA ou FAIRE un DON

Chambon - (38, Isère)

Oisans (2460 m)   Longitude: 06° 10' 42" E   Latitude: 45° 01' 32" N Station partenaire n°803
 

Détail journalier du     <<     >>

Température Humidité Vent Dir Rafale Dir. rafale Neige 1 Neige 2
Heure (°C) (%) (km/h) (km/h) (cm) (cm)
01:00 -7.04311OSO20OSO188235
02:00 -7.65615OSO21OSO188235
03:00 -8.53613SSO20SO188235
04:00 -9.12210SSO21SO188235
05:00 -9.52610SSO20SO188235
06:00 -9.6285S14S188235
07:00 -10.7363NNE8SO188235
08:00 -10.84612NNE27NNE188235
09:00 -9.21721NNE33ENE188235
10:00 -8.62318NNE29NE188235
11:00 -7.92318NNE25NE188235
12:00 -7.22613NE22NE188235
13:00 -6.5449NE16NE188235
14:00 -4.5324N15NNO188235
15:00 -4.2372S24O188235
16:00 -4.8413NNE17S188235
17:00 -4.9467NNE18NNE188234
18:00 -4.4515NNO15NNO188234
19:00 -5.3688OSO23OSO188234
20:00 -6.8768OSO22O188234
21:00 -8.7824O19O188234
22:00 -8.9816NNE25NE188234
23:00 -9.18012NNE27NNE188234
minuit -9.3787NNE20NNE188234

Graphique du 14-04-2019

 

Serveur OMMA